TimeCST,TemperatureF,Dew PointF,Humidity,Sea Level PressureIn,VisibilityMPH,Wind Direction,Wind SpeedMPH,Gust SpeedMPH,PrecipitationIn,Events,Conditions,WindDirDegrees,DateUTC
12:52 AM,8.1,1.9,76,30.27,10.0,WNW,20.7,25.3,N/A,,Clear,300,2013-02-20 06:52:00
1:52 AM,8.1,1.0,73,30.28,10.0,WNW,15.0,-,N/A,,Clear,300,2013-02-20 07:52:00
2:52 AM,7.0,1.0,77,30.29,10.0,WNW,13.8,-,N/A,,Clear,300,2013-02-20 08:52:00
3:52 AM,7.0,-0.0,73,30.31,10.0,WNW,17.3,-,N/A,,Clear,290,2013-02-20 09:52:00
4:52 AM,6.1,-0.0,76,30.32,10.0,WNW,13.8,-,N/A,,Clear,300,2013-02-20 10:52:00
5:52 AM,6.1,-0.0,76,30.33,10.0,NW,12.7,-,N/A,,Clear,310,2013-02-20 11:52:00
6:52 AM,6.1,-0.0,76,30.34,10.0,NW,11.5,-,N/A,,Clear,310,2013-02-20 12:52:00
7:52 AM,8.1,1.0,73,30.35,10.0,NNW,13.8,-,N/A,,Clear,330,2013-02-20 13:52:00
8:52 AM,10.9,3.0,70,30.37,10.0,NNW,11.5,-,N/A,,Clear,330,2013-02-20 14:52:00
9:52 AM,14.0,5.0,67,30.38,10.0,NNW,10.4,-,N/A,,Clear,330,2013-02-20 15:52:00
10:52 AM,16.0,7.0,68,30.38,10.0,NW,9.2,-,N/A,,Clear,320,2013-02-20 16:52:00
11:52 AM,17.1,9.0,71,30.37,10.0,NNW,10.4,-,N/A,,Clear,330,2013-02-20 17:52:00
12:52 PM,19.9,10.9,68,30.39,10.0,WNW,11.5,-,N/A,,Scattered Clouds,300,2013-02-20 18:52:00
1:52 PM,21.0,12.9,71,30.40,10.0,WNW,13.8,-,N/A,,Scattered Clouds,300,2013-02-20 19:52:00
2:52 PM,21.0,12.9,71,30.37,10.0,NW,11.5,-,N/A,,Scattered Clouds,310,2013-02-20 20:52:00
3:52 PM,21.0,12.9,71,30.36,10.0,NW,11.5,-,N/A,,Clear,320,2013-02-20 21:52:00
5:52 PM,19.0,12.0,74,30.38,10.0,North,9.2,-,N/A,,Clear,360,2013-02-20 23:52:00
6:52 PM,18.0,10.9,74,30.40,10.0,North,6.9,-,N/A,,Clear,10,2013-02-21 00:52:00
7:52 PM,16.0,10.0,77,30.40,10.0,NNE,4.6,-,N/A,,Clear,20,2013-02-21 01:52:00
9:52 PM,15.1,9.0,77,30.39,10.0,Calm,Calm,-,N/A,,Clear,0,2013-02-21 03:52:00
10:52 PM,15.1,10.0,80,30.40,10.0,Calm,Calm,-,N/A,,Clear,0,2013-02-21 04:52:00
11:52 PM,12.0,10.0,92,30.40,10.0,West,3.5,-,N/A,,Clear,280,2013-02-21 05:52:00